Flag for Poland Weather past 2 weeks in Gdańsk, Poland

Now
34 °F

Low clouds.


Feels Like: 25 °F
Forecast: 33 / 38 °F
Wind: 13 mph from Southwest

Location: Gdansk-Rebiechowo

Current Time: Jan 28, 2015 at 6:24:27 PM

Latest Report: Jan 28, 2015 at 6:00 PM


Visibility: N/A

Pressure: 29.53 "Hg

Humidity: 93%

Dew point: 32 °F

Location of GdańskLocation

Historic Weather in Gdańsk — Graph

°F

Gdańsk temperature yesterday

Maximum temperature yesterday: 34 °F (at 5:00 PM)
Minimum temperature yesterday: 28 °F (at 5:00 AM)
Average temperature yesterday: 31 °F

Past Weeks' High & Low Weather Summary

 TemperatureHumidityPressure
High48 °F (Jan 13, 8:30 PM)100% (Jan 15, 6:00 AM)30.24 "Hg (Jan 15, 6:00 AM)
Low21 °F (Jan 24, 5:00 AM)62% (Jan 16, 12:30 PM)29.53 "Hg (Jan 13, 5:30 PM)
Average33 °F90%29.93 "Hg
* Reported Jan 13 5:00 PM — Jan 28 5:00 PM, Gdańsk, Weather by CustomWeather, © 2014

Note: Actual official high and low records may vary slightly from our data, if they occured in-between our weather recording intervals... More about our weather records

Advertising

Gdańsk weather history for previous 24 hours

 ConditionsComfort  
Time TempWeatherWind HumidityBarometerVisibility
5:00 PM
Jan 28
34 °FLow clouds.12 mph93%29.56 "HgN/A
4:30 PM34 °FPassing clouds.9 mph93%29.59 "HgN/A
4:00 PM34 °FPartly sunny.10 mph93%29.59 "HgN/A
3:30 PM34 °FPartly sunny.9 mph93%29.62 "HgN/A
3:00 PM34 °FPartly sunny.8 mph93%29.65 "HgN/A
2:30 PM34 °FPartly sunny.8 mph93%29.65 "HgN/A
2:00 PM34 °FPartly sunny.7 mph93%29.68 "HgN/A
1:30 PM34 °FPartly sunny.8 mph93%29.68 "HgN/A
1:00 PM34 °FPartly sunny.7 mph87%29.71 "HgN/A
12:30 PM34 °FPartly sunny.6 mph87%29.71 "HgN/A
12:00 PM34 °FPartly sunny.6 mph87%29.71 "HgN/A
11:30 AM34 °FPartly sunny.7 mph87%29.74 "HgN/A
11:00 AM34 °FPartly sunny.9 mph81%29.77 "HgN/A
10:30 AM34 °FPartly sunny.12 mph87%29.77 "HgN/A
10:00 AM34 °FPartly sunny.7 mph93%29.77 "HgN/A
9:30 AM34 °FPartly sunny.7 mph93%29.77 "HgN/A
9:00 AM34 °FPartly sunny.7 mph93%29.77 "HgN/A
8:30 AM34 °FPartly sunny.7 mph93%29.77 "HgN/A
8:00 AM32 °FBroken clouds.6 mph100%29.80 "HgN/A
7:30 AM32 °FPartly cloudy.6 mph100%29.80 "HgN/A
7:00 AM32 °FSnow flurries. Partly cloudy.5 mph100%29.80 "Hg1 mi
6:30 AM32 °FSnow flurries. Passing clouds.5 mph100%29.80 "Hg1 mi
6:00 AM34 °FPassing clouds.8 mph93%29.80 "Hg5 mi
5:30 AM34 °FPassing clouds.7 mph93%29.80 "Hg5 mi
5:00 AM32 °FLight snow. Passing clouds.9 mph100%29.80 "Hg2 mi
4:30 AM34 °FPassing clouds.10 mph100%29.80 "HgN/A
4:00 AM34 °FPassing clouds.8 mph100%29.80 "Hg5 mi
3:30 AM34 °FFog.8 mph100%29.80 "Hg3 mi
3:00 AM34 °FFog.8 mph100%29.80 "Hg3 mi
2:30 AM34 °FFog.9 mph100%29.80 "Hg2 mi
2:00 AM34 °FFog.8 mph100%29.80 "Hg2 mi
1:30 AM34 °FSnow flurries. Fog.7 mph100%29.80 "Hg2 mi
1:00 AM34 °FFog.5 mph100%29.80 "Hg2 mi
12:30 AM34 °FFog.5 mph100%29.80 "Hg2 mi
12:00 AM34 °FFog.6 mph100%29.80 "Hg2 mi
11:30 PM
Jan 27
34 °FFog.6 mph100%29.80 "Hg3 mi
11:00 PM34 °FFog.7 mph100%29.80 "Hg3 mi
10:30 PM34 °FFog.9 mph100%29.80 "Hg2 mi
10:00 PM34 °FDrizzle. Fog.9 mph100%29.80 "Hg1 mi
9:30 PM34 °FDrizzle. Fog.10 mph100%29.80 "Hg1 mi
9:00 PM34 °FDrizzle. Fog.5 mph100%29.77 "Hg2 mi
8:30 PM34 °FDrizzle. Fog.5 mph100%29.77 "Hg2 mi
8:00 PM34 °FFog.6 mph100%29.77 "Hg3 mi
7:30 PM34 °FFog.5 mph100%29.77 "Hg2 mi
7:00 PM34 °FFog.6 mph100%29.77 "Hg2 mi
6:30 PM34 °FFog.5 mph100%29.77 "Hg1 mi
6:00 PM34 °FDrizzle. Fog.3 mph100%29.77 "Hg1 mi
Weather by CustomWeather, © 2014

See weather overviewHow to use our weather pages